| time (UTC) | temp C | wind direction | speed KPH | gust KPH | rain 1hr cm | rain 24hr cm | rain mn cm | humidity % | barometer mb |
| 20260906004010 | 20 | 48 | 0.0 | 0.0 | 0.00 | 0.00 | 0.00 | 76 | 1016.0 |
| 20260906003505 | 20 | 25 | 0.0 | 0.0 | 0.00 | 0.00 | 0.00 | 76 | 1015.9 |
| 20260906003000 | 20 | 94 | 0.0 | 1.6 | 0.00 | 0.00 | 0.00 | 76 | 1016.0 |
| 20260906002455 | 20 | 22 | 0.0 | 0.0 | 0.00 | 0.00 | 0.00 | 76 | 1015.9 |
| 20260906001950 | 20 | 50 | 0.0 | 0.0 | 0.00 | 0.00 | 0.00 | 75 | 1015.7 |
| 20260906001446 | 21 | 83 | 0.0 | 1.6 | 0.00 | 0.00 | 0.00 | 75 | 1015.9 |
| 20260906000940 | 21 | 50 | 0.0 | 0.0 | 0.00 | 0.00 | 0.00 | 75 | 1015.8 |
| 20260906000436 | 21 | 54 | 0.0 | 0.0 | 0.00 | 0.00 | 0.00 | 74 | 1015.8 |
| 20260905235931 | 21 | 31 | 0.0 | 0.0 | 0.00 | 0.00 | 0.00 | 74 | 1015.8 |
| 20260905235431 | 21 | 72 | 0.0 | 0.0 | 0.00 | 0.00 | 0.00 | 74 | 1015.6 |
| 20260905234926 | 21 | 66 | 1.6 | 3.2 | 0.00 | 0.00 | 0.00 | 73 | 1015.8 |
| 20260905234421 | 22 | 95 | 0.0 | 0.0 | 0.00 | 0.00 | 0.00 | 74 | 1015.7 |
| 20260905233915 | 22 | 333 | 0.0 | 0.0 | 0.00 | 0.00 | 0.00 | 73 | 1015.6 |
| 20260905233411 | 22 | 97 | 0.0 | 1.6 | 0.00 | 0.00 | 0.00 | 72 | 1015.5 |
| 20260905232909 | 22 | 29 | 0.0 | 0.0 | 0.00 | 0.00 | 0.00 | 72 | 1015.4 |
| 20260905232406 | 23 | 29 | 0.0 | 0.0 | 0.00 | 0.00 | 0.00 | 72 | 1015.7 |
| 20260905231900 | 23 | 0 | 0.0 | 0.0 | 0.00 | 0.00 | 0.00 | 71 | 1015.4 |
| 20260905231356 | 23 | 66 | 0.0 | 0.0 | 0.00 | 0.00 | 0.00 | 71 | 1015.3 |
| 20260905230853 | 23 | 59 | 0.0 | 0.0 | 0.00 | 0.00 | 0.00 | 71 | 1015.7 |
| 20260905230350 | 23 | 71 | 0.0 | 1.6 | 0.00 | 0.00 | 0.00 | 71 | 1015.6 |
| 20260905225844 | 23 | 13 | 0.0 | 0.0 | 0.00 | 0.00 | 0.00 | 71 | 1015.4 |
| 20260905225339 | 23 | 41 | 0.0 | 0.0 | 0.00 | 0.00 | 0.00 | 72 | 1015.6 |
| 20260905224834 | 23 | 58 | 0.0 | 0.0 | 0.00 | 0.00 | 0.00 | 71 | 1015.4 |
| 20260905224330 | 23 | 57 | 0.0 | 1.6 | 0.00 | 0.00 | 0.00 | 70 | 1015.1 |
| 20260905223824 | 24 | 48 | 0.0 | 0.0 | 0.00 | 0.00 | 0.00 | 70 | 1015.0 |
| 20260905223322 | 25 | 349 | 1.6 | 1.6 | 0.00 | 0.00 | 0.00 | 69 | 1015.0 |
| 20260905222817 | 25 | 8 | 0.0 | 0.0 | 0.00 | 0.00 | 0.00 | 69 | 1015.1 |
| 20260905222316 | 25 | 72 | 1.6 | 4.8 | 0.00 | 0.00 | 0.00 | 68 | 1015.4 |
| 20260905221812 | 24 | 314 | 0.0 | 0.0 | 0.00 | 0.00 | 0.00 | 71 | 1015.2 |
| 20260905221309 | 24 | 58 | 0.0 | 0.0 | 0.00 | 0.00 | 0.00 | 70 | 1015.1 |
| 20260905220804 | 25 | 67 | 0.0 | 1.6 | 0.00 | 0.00 | 0.00 | 68 | 1015.1 |
| 20260905220300 | 25 | 78 | 4.8 | 8.0 | 0.00 | 0.00 | 0.00 | 67 | 1014.8 |
| 20260905215759 | 25 | 114 | 4.8 | 8.0 | 0.00 | 0.00 | 0.00 | 65 | 1014.8 |
| 20260905215255 | 25 | 79 | 0.0 | 1.6 | 0.00 | 0.00 | 0.00 | 66 | 1014.8 |
| 20260905214751 | 25 | 95 | 0.0 | 1.6 | 0.00 | 0.00 | 0.00 | 66 | 1014.8 |
| 20260905214246 | 25 | 36 | 3.2 | 4.8 | 0.00 | 0.00 | 0.00 | 65 | 1014.4 |
| 20260905213741 | 25 | 331 | 0.0 | 1.6 | 0.00 | 0.00 | 0.00 | 68 | 1014.5 |
| 20260905213238 | 25 | 91 | 1.6 | 1.6 | 0.00 | 0.00 | 0.00 | 67 | 1014.7 |
| 20260905212733 | 25 | 70 | 0.0 | 0.0 | 0.00 | 0.00 | 0.00 | 68 | 1014.8 |
| 20260905212232 | 25 | 77 | 0.0 | 0.0 | 0.00 | 0.00 | 0.00 | 69 | 1014.9 |
| 20260905211731 | 25 | 62 | 0.0 | 0.0 | 0.00 | 0.00 | 0.00 | 68 | 1015.1 |
| 20260905211227 | 25 | 81 | 0.0 | 0.0 | 0.00 | 0.00 | 0.00 | 68 | 1014.8 |
| 20260905210724 | 25 | 69 | 1.6 | 3.2 | 0.00 | 0.00 | 0.00 | 66 | 1014.8 |
| 20260905210223 | 26 | 102 | 0.0 | 0.0 | 0.00 | 0.00 | 0.00 | 66 | 1014.8 |
| 20260905205722 | 25 | 4 | 9.7 | 12.9 | 0.00 | 0.00 | 0.00 | 65 | 1014.7 |
| 20260905205217 | 25 | 58 | 0.0 | 0.0 | 0.00 | 0.00 | 0.00 | 66 | 1014.7 |
| 20260905204717 | 25 | 72 | 0.0 | 0.0 | 0.00 | 0.00 | 0.00 | 68 | 1014.9 |
| 20260905204212 | 24 | 29 | 0.0 | 1.6 | 0.00 | 0.00 | 0.00 | 69 | 1014.9 |
| 20260905203706 | 25 | 88 | 1.6 | 3.2 | 0.00 | 0.00 | 0.00 | 68 | 1014.7 |
| 20260905203202 | 25 | 48 | 3.2 | 3.2 | 0.00 | 0.00 | 0.00 | 67 | 1014.9 |
| 20260905202657 | 26 | 41 | 0.0 | 1.6 | 0.00 | 0.00 | 0.00 | 65 | 1015.0 |
| 20260905202152 | 26 | 342 | 4.8 | 4.8 | 0.00 | 0.00 | 0.00 | 63 | 1014.9 |
| 20260905201648 | 25 | 37 | 0.0 | 0.0 | 0.00 | 0.00 | 0.00 | 67 | 1014.9 |
| 20260905201147 | 25 | 60 | 0.0 | 3.2 | 0.00 | 0.00 | 0.00 | 66 | 1014.9 |
| 20260905200643 | 25 | 87 | 0.0 | 1.6 | 0.00 | 0.00 | 0.00 | 64 | 1014.9 |
| 20260905200138 | 25 | 327 | 1.6 | 3.2 | 0.00 | 0.00 | 0.00 | 64 | 1015.0 |
| 20260905195636 | 25 | 27 | 0.0 | 1.6 | 0.00 | 0.00 | 0.00 | 66 | 1015.1 |
| 20260905195131 | 25 | 71 | 1.6 | 3.2 | 0.00 | 0.00 | 0.00 | 65 | 1015.0 |
| 20260905194626 | 26 | 82 | 0.0 | 0.0 | 0.00 | 0.00 | 0.00 | 64 | 1014.9 |
| 20260905194126 | 26 | 152 | 0.0 | 1.6 | 0.00 | 0.00 | 0.00 | 64 | 1014.9 |
| 20260905193621 | 25 | 80 | 0.0 | 0.0 | 0.00 | 0.00 | 0.00 | 65 | 1015.1 |
| 20260905193116 | 26 | 87 | 0.0 | 1.6 | 0.00 | 0.00 | 0.00 | 65 | 1015.2 |
| 20260905192612 | 25 | 109 | 0.0 | 1.6 | 0.00 | 0.00 | 0.00 | 67 | 1015.1 |
| 20260905192108 | 25 | 65 | 1.6 | 3.2 | 0.00 | 0.00 | 0.00 | 65 | 1015.5 |
| 20260905191606 | 26 | 133 | 11.3 | 16.1 | 0.00 | 0.00 | 0.00 | 64 | 1015.2 |
| 20260905191105 | 26 | 349 | 0.0 | 1.6 | 0.00 | 0.00 | 0.00 | 65 | 1015.3 |
| 20260905190603 | 25 | 78 | 1.6 | 1.6 | 0.00 | 0.00 | 0.00 | 64 | 1015.4 |
| 20260905185602 | 26 | 45 | 1.6 | 3.2 | 0.00 | 0.00 | 0.00 | 64 | 1015.3 |
| 20260905185056 | 26 | 63 | 0.0 | 1.6 | 0.00 | 0.00 | 0.00 | 64 | 1015.5 |
| 20260905184551 | 25 | 7 | 3.2 | 3.2 | 0.00 | 0.00 | 0.00 | 66 | 1015.5 |
| 20260905184049 | 25 | 49 | 0.0 | 1.6 | 0.00 | 0.00 | 0.00 | 68 | 1015.8 |
| 20260905183544 | 25 | 48 | 0.0 | 0.0 | 0.00 | 0.00 | 0.00 | 65 | 1015.4 |
| 20260905183039 | 25 | 65 | 1.6 | 1.6 | 0.00 | 0.00 | 0.00 | 66 | 1015.2 |
| 20260905182538 | 25 | 329 | 4.8 | 8.0 | 0.00 | 0.00 | 0.00 | 68 | 1015.2 |
| 20260905182033 | 25 | 17 | 1.6 | 1.6 | 0.00 | 0.00 | 0.00 | 67 | 1015.4 |
| 20260905181528 | 26 | 33 | 0.0 | 1.6 | 0.00 | 0.00 | 0.00 | 67 | 1015.5 |
| 20260905181027 | 25 | 67 | 0.0 | 1.6 | 0.00 | 0.00 | 0.00 | 68 | 1015.5 |
| 20260905180522 | 25 | 55 | 0.0 | 1.6 | 0.00 | 0.00 | 0.00 | 67 | 1015.4 |
| 20260905180017 | 25 | 65 | 3.2 | 9.7 | 0.00 | 0.00 | 0.00 | 67 | 1015.3 |
| 20260905175516 | 26 | 305 | 3.2 | 4.8 | 0.00 | 0.00 | 0.00 | 65 | 1015.4 |
| 20260905175012 | 25 | 335 | 0.0 | 0.0 | 0.00 | 0.00 | 0.00 | 66 | 1015.3 |
| 20260905174508 | 26 | 86 | 0.0 | 0.0 | 0.00 | 0.00 | 0.00 | 68 | 1015.4 |
| 20260905174003 | 25 | 128 | 1.6 | 1.6 | 0.00 | 0.00 | 0.00 | 67 | 1015.3 |
| 20260905173459 | 26 | 91 | 8.0 | 11.3 | 0.00 | 0.00 | 0.00 | 67 | 1015.1 |
| 20260905172954 | 25 | 131 | 4.8 | 9.7 | 0.00 | 0.00 | 0.00 | 68 | 1015.2 |
| 20260905172452 | 25 | 62 | 1.6 | 8.0 | 0.00 | 0.00 | 0.00 | 68 | 1015.4 |
| 20260905171948 | 24 | 34 | 1.6 | 3.2 | 0.00 | 0.00 | 0.00 | 71 | 1015.4 |
| 20260905171444 | 25 | 178 | 3.2 | 4.8 | 0.00 | 0.00 | 0.00 | 71 | 1015.6 |
| 20260905170941 | 25 | 7 | 4.8 | 8.0 | 0.00 | 0.00 | 0.00 | 67 | 1015.4 |
| 20260905170437 | 26 | 63 | 0.0 | 0.0 | 0.00 | 0.00 | 0.00 | 67 | 1015.4 |
| 20260905165936 | 25 | 311 | 0.0 | 0.0 | 0.00 | 0.00 | 0.00 | 69 | 1015.3 |
| 20260905165431 | 25 | 66 | 0.0 | 0.0 | 0.00 | 0.00 | 0.00 | 70 | 1015.5 |
| 20260905164926 | 25 | 327 | 0.0 | 0.0 | 0.00 | 0.00 | 0.00 | 70 | 1015.3 |
| 20260905164420 | 24 | 83 | 0.0 | 0.0 | 0.00 | 0.00 | 0.00 | 69 | 1015.6 |
| 20260905163915 | 24 | 81 | 0.0 | 1.6 | 0.00 | 0.00 | 0.00 | 71 | 1015.5 |
| 20260905163412 | 24 | 65 | 1.6 | 1.6 | 0.00 | 0.00 | 0.00 | 72 | 1015.9 |
| 20260905162908 | 24 | 21 | 0.0 | 0.0 | 0.00 | 0.00 | 0.00 | 69 | 1015.6 |
| 20260905162403 | 25 | 46 | 0.0 | 0.0 | 0.00 | 0.00 | 0.00 | 70 | 1015.7 |
| 20260905161857 | 25 | 307 | 1.6 | 4.8 | 0.00 | 0.00 | 0.00 | 70 | 1015.4 |
| 20260905161356 | 24 | 330 | 0.0 | 1.6 | 0.00 | 0.00 | 0.00 | 69 | 1015.7 |
| 20260905160854 | 25 | 21 | 1.6 | 8.0 | 0.00 | 0.00 | 0.00 | 72 | 1015.6 |
| 20260905160349 | 25 | 250 | 0.0 | 0.0 | 0.00 | 0.00 | 0.00 | 72 | 1015.7 |
| 20260905155844 | 24 | 30 | 0.0 | 0.0 | 0.00 | 0.00 | 0.00 | 74 | 1015.4 |
| 20260905155343 | 24 | 32 | 1.6 | 3.2 | 0.00 | 0.00 | 0.00 | 72 | 1015.6 |
| 20260905154842 | 23 | 50 | 8.0 | 12.9 | 0.00 | 0.00 | 0.00 | 73 | 1015.6 |
| 20260905154338 | 24 | 64 | 1.6 | 4.8 | 0.00 | 0.00 | 0.00 | 72 | 1015.7 |
| 20260905153833 | 23 | 75 | 0.0 | 0.0 | 0.00 | 0.00 | 0.00 | 74 | 1015.5 |
| 20260905153330 | 23 | 62 | 0.0 | 1.6 | 0.00 | 0.00 | 0.00 | 75 | 1015.4 |
| 20260905152829 | 24 | 47 | 0.0 | 0.0 | 0.00 | 0.00 | 0.00 | 73 | 1015.6 |
| 20260905152328 | 23 | 72 | 1.6 | 3.2 | 0.00 | 0.00 | 0.00 | 74 | 1015.5 |
| 20260905151824 | 23 | 68 | 0.0 | 1.6 | 0.00 | 0.00 | 0.00 | 75 | 1015.5 |
| 20260905151319 | 24 | 61 | 0.0 | 0.0 | 0.00 | 0.00 | 0.00 | 75 | 1015.4 |
| 20260905150814 | 23 | 24 | 0.0 | 0.0 | 0.00 | 0.00 | 0.00 | 75 | 1015.6 |
| 20260905150314 | 23 | 110 | 0.0 | 1.6 | 0.00 | 0.00 | 0.00 | 75 | 1015.6 |
| 20260905145810 | 23 | 44 | 0.0 | 0.0 | 0.00 | 0.00 | 0.00 | 77 | 1015.5 |
| 20260905145306 | 23 | 82 | 1.6 | 3.2 | 0.00 | 0.00 | 0.00 | 75 | 1015.4 |
| 20260905144804 | 22 | 61 | 3.2 | 9.7 | 0.00 | 0.00 | 0.00 | 76 | 1015.3 |
| 20260905144300 | 22 | 66 | 1.6 | 4.8 | 0.00 | 0.00 | 0.00 | 77 | 1015.5 |
| 20260905143758 | 22 | 98 | 3.2 | 8.0 | 0.00 | 0.00 | 0.00 | 77 | 1015.5 |
| 20260905143253 | 22 | 65 | 1.6 | 4.8 | 0.00 | 0.00 | 0.00 | 77 | 1015.3 |
| 20260905142751 | 22 | 65 | 6.4 | 11.3 | 0.00 | 0.00 | 0.00 | 76 | 1015.2 |
| 20260905142246 | 22 | 70 | 1.6 | 1.6 | 0.00 | 0.00 | 0.00 | 76 | 1015.4 |
| 20260905141742 | 22 | 71 | 3.2 | 4.8 | 0.00 | 0.00 | 0.00 | 78 | 1015.3 |
| 20260905141238 | 22 | 70 | 1.6 | 4.8 | 0.00 | 0.00 | 0.00 | 79 | 1015.2 |
| 20260905140733 | 22 | 69 | 1.6 | 3.2 | 0.00 | 0.00 | 0.00 | 79 | 1015.2 |
| 20260905140227 | 21 | 28 | 4.8 | 9.7 | 0.00 | 0.00 | 0.00 | 81 | 1015.1 |
| 20260905135726 | 21 | 95 | 4.8 | 9.7 | 0.00 | 0.00 | 0.00 | 81 | 1015.2 |
| 20260905135223 | 21 | 78 | 8.0 | 12.9 | 0.00 | 0.00 | 0.00 | 82 | 1015.1 |
| 20260905134722 | 21 | 66 | 3.2 | 3.2 | 0.00 | 0.00 | 0.00 | 85 | 1015.3 |
| 20260905134221 | 21 | 53 | 3.2 | 3.2 | 0.00 | 0.00 | 0.00 | 85 | 1015.2 |
| 20260905133716 | 21 | 48 | 1.6 | 3.2 | 0.00 | 0.00 | 0.00 | 87 | 1015.4 |
| 20260905133211 | 20 | 3 | 3.2 | 4.8 | 0.00 | 0.00 | 0.00 | 90 | 1015.4 |
| 20260905132710 | 20 | 86 | 3.2 | 3.2 | 0.00 | 0.00 | 0.00 | 91 | 1015.3 |
| 20260905132206 | 20 | 82 | 0.0 | 0.0 | 0.00 | 0.00 | 0.00 | 92 | 1015.5 |
| 20260905131701 | 20 | 39 | 1.6 | 3.2 | 0.00 | 0.00 | 0.00 | 93 | 1015.5 |
| 20260905131156 | 20 | 79 | 8.0 | 11.3 | 0.00 | 0.00 | 0.00 | 93 | 1015.3 |
| 20260905130650 | 20 | 107 | 4.8 | 8.0 | 0.00 | 0.00 | 0.00 | 93 | 1015.5 |
| 20260905130150 | 20 | 73 | 0.0 | 1.6 | 0.00 | 0.00 | 0.00 | 94 | 1015.2 |
| 20260905125644 | 20 | 81 | 3.2 | 4.8 | 0.00 | 0.00 | 0.00 | 94 | 1015.3 |
| 20260905125140 | 20 | 53 | 0.0 | 0.0 | 0.00 | 0.00 | 0.00 | 94 | 1015.5 |
| 20260905124636 | 20 | 60 | 3.2 | 3.2 | 0.00 | 0.00 | 0.00 | 94 | 1015.4 |
| 20260905124132 | 20 | 76 | 1.6 | 1.6 | 0.00 | 0.00 | 0.00 | 95 | 1015.1 |
| 20260905123627 | 20 | 65 | 1.6 | 1.6 | 0.00 | 0.00 | 0.00 | 95 | 1015.3 |
| 20260905123124 | 20 | 66 | 0.0 | 0.0 | 0.00 | 0.00 | 0.00 | 95 | 1015.2 |
| 20260905122619 | 20 | 75 | 0.0 | 0.0 | 0.00 | 0.00 | 0.00 | 96 | 1014.9 |
| 20260905122119 | 20 | 91 | 9.7 | 11.3 | 0.00 | 0.00 | 0.00 | 96 | 1014.9 |
| 20260905121614 | 19 | 78 | 1.6 | 4.8 | 0.00 | 0.00 | 0.00 | 96 | 1014.8 |
| 20260905121109 | 19 | 28 | 0.0 | 1.6 | 0.00 | 0.00 | 0.00 | 97 | 1015.0 |
| 20260905120608 | 19 | 64 | 6.4 | 8.0 | 0.00 | 0.00 | 0.00 | 97 | 1014.9 |
| 20260905120103 | 19 | 69 | 0.0 | 1.6 | 0.00 | 0.00 | 0.00 | 98 | 1014.9 |
| 20260905115602 | 19 | 74 | 3.2 | 4.8 | 0.00 | 0.00 | 0.00 | 98 | 1014.8 |
| 20260905115057 | 19 | 85 | 0.0 | 1.6 | 0.00 | 0.00 | 0.00 | 98 | 1014.7 |
| 20260905114556 | 19 | 60 | 0.0 | 0.0 | 0.00 | 0.00 | 0.00 | 98 | 1014.7 |
| 20260905114055 | 19 | 63 | 4.8 | 4.8 | 0.00 | 0.00 | 0.00 | 98 | 1014.6 |
| 20260905113550 | 19 | 78 | 1.6 | 1.6 | 0.00 | 0.00 | 0.00 | 99 | 1014.5 |
| 20260905113045 | 18 | 81 | 3.2 | 4.8 | 0.00 | 0.00 | 0.00 | 99 | 1014.6 |
| 20260905112541 | 19 | 27 | 1.6 | 3.2 | 0.00 | 0.00 | 0.00 | 99 | 1014.3 |
| 20260905112036 | 18 | 61 | 1.6 | 1.6 | 0.00 | 0.00 | 0.00 | 99 | 1014.3 |
| 20260905111531 | 18 | 70 | 3.2 | 3.2 | 0.00 | 0.00 | 0.00 | 99 | 1014.2 |
| 20260905111030 | 18 | 57 | 0.0 | 0.0 | 0.00 | 0.00 | 0.00 | 99 | 1014.3 |
| 20260905110529 | 18 | 145 | 3.2 | 3.2 | 0.00 | 0.00 | 0.00 | 99 | 1014.5 |
| 20260905110025 | 18 | 69 | 0.0 | 1.6 | 0.00 | 0.00 | 0.00 | 99 | 1014.5 |
| 20260905105519 | 18 | 74 | 4.8 | 8.0 | 0.00 | 0.00 | 0.00 | 99 | 1014.6 |
| 20260905105018 | 18 | 74 | 0.0 | 0.0 | 0.00 | 0.00 | 0.00 | 99 | 1014.6 |
| 20260905104515 | 18 | 29 | 0.0 | 0.0 | 0.00 | 0.00 | 0.00 | 99 | 1014.5 |
| 20260905104014 | 18 | 60 | 0.0 | 0.0 | 0.00 | 0.00 | 0.00 | 99 | 1014.6 |
| 20260905103509 | 18 | 316 | 0.0 | 0.0 | 0.00 | 0.00 | 0.00 | 99 | 1014.6 |
| 20260905103005 | 18 | 123 | 0.0 | 0.0 | 0.00 | 0.00 | 0.00 | 99 | 1014.3 |
| 20260905102501 | 18 | 26 | 0.0 | 0.0 | 0.00 | 0.00 | 0.00 | 99 | 1014.4 |
| 20260905101956 | 18 | 57 | 0.0 | 0.0 | 0.00 | 0.00 | 0.00 | 99 | 1014.3 |
| 20260905101455 | 18 | 51 | 1.6 | 3.2 | 0.00 | 0.00 | 0.00 | 99 | 1014.4 |
| 20260905100954 | 18 | 221 | 1.6 | 3.2 | 0.00 | 0.00 | 0.00 | 99 | 1014.4 |
| 20260905100450 | 18 | 42 | 0.0 | 1.6 | 0.00 | 0.00 | 0.00 | 99 | 1014.2 |
| 20260905095949 | 18 | 83 | 1.6 | 3.2 | 0.00 | 0.00 | 0.00 | 99 | 1014.4 |
| 20260905095444 | 18 | 51 | 1.6 | 4.8 | 0.00 | 0.00 | 0.00 | 99 | 1014.4 |
| 20260905094939 | 18 | 72 | 0.0 | 1.6 | 0.00 | 0.00 | 0.00 | 99 | 1014.4 |
| 20260905094435 | 18 | 72 | 0.0 | 0.0 | 0.00 | 0.00 | 0.00 | 99 | 1014.6 |
| 20260905093933 | 18 | 42 | 0.0 | 0.0 | 0.00 | 0.00 | 0.00 | 99 | 1014.5 |
| 20260905093429 | 18 | 74 | 0.0 | 0.0 | 0.00 | 0.00 | 0.00 | 99 | 1014.6 |
| 20260905092924 | 18 | 50 | 0.0 | 0.0 | 0.00 | 0.00 | 0.00 | 99 | 1014.5 |
| 20260905092420 | 18 | 89 | 0.0 | 0.0 | 0.00 | 0.00 | 0.00 | 99 | 1014.3 |
| 20260905091914 | 18 | 17 | 0.0 | 0.0 | 0.00 | 0.00 | 0.00 | 99 | 1014.3 |
| 20260905091409 | 18 | 353 | 0.0 | 0.0 | 0.00 | 0.00 | 0.00 | 99 | 1014.5 |
| 20260905090908 | 18 | 311 | 0.0 | 0.0 | 0.00 | 0.00 | 0.00 | 99 | 1014.5 |
| 20260905090404 | 18 | 152 | 0.0 | 0.0 | 0.00 | 0.00 | 0.00 | 99 | 1014.5 |
| 20260905085903 | 18 | 288 | 0.0 | 0.0 | 0.00 | 0.00 | 0.00 | 99 | 1014.5 |
| 20260905085357 | 18 | 4 | 0.0 | 0.0 | 0.00 | 0.00 | 0.00 | 99 | 1014.5 |
| 20260905084853 | 18 | 323 | 0.0 | 0.0 | 0.00 | 0.00 | 0.00 | 99 | 1014.5 |
| 20260905084352 | 18 | 8 | 0.0 | 0.0 | 0.00 | 0.00 | 0.00 | 99 | 1014.5 |
| 20260905083847 | 18 | 336 | 0.0 | 0.0 | 0.00 | 0.00 | 0.00 | 99 | 1014.2 |
| 20260905083343 | 18 | 314 | 0.0 | 0.0 | 0.00 | 0.00 | 0.00 | 99 | 1014.2 |
| 20260905082838 | 18 | 56 | 0.0 | 0.0 | 0.00 | 0.00 | 0.00 | 99 | 1014.2 |
| 20260905082334 | 18 | 53 | 0.0 | 0.0 | 0.00 | 0.00 | 0.00 | 99 | 1014.3 |
| 20260905081829 | 18 | 42 | 0.0 | 0.0 | 0.00 | 0.00 | 0.00 | 99 | 1014.7 |
| 20260905081324 | 18 | 326 | 0.0 | 0.0 | 0.00 | 0.00 | 0.00 | 99 | 1014.5 |
| 20260905080823 | 18 | 270 | 0.0 | 0.0 | 0.00 | 0.00 | 0.00 | 99 | 1014.5 |
| 20260905080318 | 18 | 80 | 1.6 | 1.6 | 0.00 | 0.00 | 0.00 | 99 | 1014.6 |
| 20260905075816 | 18 | 22 | 0.0 | 0.0 | 0.00 | 0.00 | 0.00 | 99 | 1014.5 |
| 20260905075311 | 18 | 277 | 0.0 | 0.0 | 0.00 | 0.00 | 0.00 | 99 | 1014.1 |
| 20260905074809 | 18 | 181 | 0.0 | 0.0 | 0.00 | 0.00 | 0.00 | 99 | 1014.4 |
| 20260905074305 | 18 | 42 | 0.0 | 0.0 | 0.00 | 0.00 | 0.00 | 99 | 1014.0 |
| 20260905073800 | 18 | 70 | 1.6 | 1.6 | 0.00 | 0.00 | 0.00 | 99 | 1014.2 |
| 20260905073255 | 18 | 89 | 0.0 | 1.6 | 0.00 | 0.00 | 0.00 | 99 | 1014.0 |
| 20260905072750 | 18 | 340 | 0.0 | 0.0 | 0.00 | 0.00 | 0.00 | 99 | 1014.1 |
| 20260905072246 | 18 | 63 | 0.0 | 0.0 | 0.00 | 0.00 | 0.00 | 99 | 1013.9 |
| 20260905071742 | 18 | 66 | 0.0 | 0.0 | 0.00 | 0.00 | 0.00 | 99 | 1013.9 |
| 20260905071238 | 18 | 308 | 0.0 | 0.0 | 0.00 | 0.00 | 0.00 | 99 | 1013.8 |
| 20260905070733 | 18 | 78 | 1.6 | 1.6 | 0.00 | 0.00 | 0.00 | 99 | 1013.9 |
| 20260905070229 | 18 | 70 | 0.0 | 0.0 | 0.00 | 0.00 | 0.00 | 99 | 1013.8 |
| 20260905065727 | 18 | 84 | 0.0 | 0.0 | 0.00 | 0.00 | 0.00 | 99 | 1013.7 |
| 20260905065221 | 18 | 49 | 0.0 | 0.0 | 0.00 | 0.00 | 0.00 | 99 | 1013.8 |
| 20260905064717 | 18 | 67 | 1.6 | 3.2 | 0.00 | 0.00 | 0.00 | 99 | 1013.7 |
| 20260905064213 | 18 | 11 | 1.6 | 3.2 | 0.00 | 0.00 | 0.00 | 99 | 1013.5 |
| 20260905063711 | 18 | 68 | 0.0 | 1.6 | 0.00 | 0.00 | 0.00 | 99 | 1013.9 |
| 20260905063207 | 18 | 308 | 0.0 | 0.0 | 0.00 | 0.00 | 0.00 | 99 | 1014.0 |
| 20260905062703 | 18 | 9 | 0.0 | 0.0 | 0.00 | 0.00 | 0.00 | 99 | 1014.0 |
| 20260905062202 | 18 | 52 | 0.0 | 0.0 | 0.00 | 0.00 | 0.00 | 99 | 1014.1 |
| 20260905061702 | 18 | 43 | 0.0 | 0.0 | 0.00 | 0.00 | 0.00 | 99 | 1013.9 |
| 20260905061156 | 18 | 43 | 0.0 | 1.6 | 0.00 | 0.00 | 0.00 | 99 | 1014.1 |
| 20260905060652 | 18 | 29 | 0.0 | 0.0 | 0.00 | 0.00 | 0.00 | 99 | 1014.2 |
| 20260905060148 | 18 | 32 | 0.0 | 1.6 | 0.00 | 0.00 | 0.00 | 99 | 1014.2 |
| 20260905055647 | 18 | 74 | 0.0 | 0.0 | 0.00 | 0.00 | 0.00 | 99 | 1014.3 |
| 20260905055142 | 18 | 80 | 3.2 | 3.2 | 0.00 | 0.00 | 0.00 | 99 | 1014.2 |
| 20260905054638 | 18 | 75 | 0.0 | 1.6 | 0.00 | 0.00 | 0.00 | 99 | 1014.4 |
| 20260905054133 | 18 | 58 | 0.0 | 0.0 | 0.00 | 0.00 | 0.00 | 99 | 1014.4 |
| 20260905053632 | 18 | 148 | 0.0 | 1.6 | 0.00 | 0.00 | 0.00 | 99 | 1014.4 |
| 20260905053128 | 18 | 73 | 0.0 | 1.6 | 0.00 | 0.00 | 0.00 | 99 | 1014.4 |
| 20260905052627 | 18 | 71 | 1.6 | 1.6 | 0.00 | 0.00 | 0.00 | 99 | 1014.4 |
| 20260905052121 | 18 | 57 | 1.6 | 3.2 | 0.00 | 0.00 | 0.00 | 99 | 1014.5 |
| 20260905051617 | 19 | 71 | 0.0 | 1.6 | 0.00 | 0.00 | 0.00 | 99 | 1014.5 |
| 20260905051114 | 19 | 51 | 0.0 | 0.0 | 0.00 | 0.00 | 0.00 | 99 | 1014.4 |
| 20260905050604 | 19 | 33 | 0.0 | 0.0 | 0.00 | 0.00 | 0.00 | 99 | 1014.5 |
| 20260905050101 | 19 | 51 | 0.0 | 0.0 | 0.00 | 0.00 | 0.00 | 99 | 1014.4 |
| 20260905045554 | 19 | 26 | 0.0 | 0.0 | 0.00 | 0.00 | 0.00 | 99 | 1014.2 |
| 20260905045050 | 19 | 79 | 0.0 | 0.0 | 0.00 | 0.00 | 0.00 | 99 | 1014.0 |
| 20260905044550 | 19 | 68 | 0.0 | 1.6 | 0.00 | 0.00 | 0.00 | 99 | 1014.0 |
| 20260905044044 | 19 | 74 | 1.6 | 1.6 | 0.00 | 0.00 | 0.00 | 99 | 1014.1 |
| 20260905043544 | 19 | 92 | 0.0 | 0.0 | 0.00 | 0.00 | 0.00 | 99 | 1014.0 |
| 20260905043039 | 19 | 120 | 1.6 | 1.6 | 0.00 | 0.00 | 0.00 | 99 | 1014.2 |
| 20260905042538 | 19 | 48 | 0.0 | 0.0 | 0.00 | 0.00 | 0.00 | 99 | 1014.2 |
| 20260905042033 | 19 | 5 | 0.0 | 0.0 | 0.00 | 0.00 | 0.00 | 99 | 1014.4 |
| 20260905041528 | 20 | 108 | 0.0 | 0.0 | 0.00 | 0.00 | 0.00 | 99 | 1014.3 |
| 20260905041024 | 20 | 332 | 0.0 | 0.0 | 0.00 | 0.00 | 0.00 | 99 | 1014.2 |
| 20260905040523 | 20 | 47 | 0.0 | 0.0 | 0.00 | 0.00 | 0.00 | 99 | 1014.4 |
| 20260905040022 | 20 | 21 | 0.0 | 0.0 | 0.00 | 0.18 | 0.18 | 99 | 1014.4 |
| 20260905035517 | 20 | 78 | 0.0 | 1.6 | 0.00 | 0.18 | 0.18 | 99 | 1014.4 |
| 20260905035015 | 20 | 72 | 1.6 | 1.6 | 0.00 | 0.18 | 0.18 | 99 | 1014.6 |
| 20260905034510 | 20 | 66 | 0.0 | 1.6 | 0.00 | 0.18 | 0.18 | 99 | 1014.5 |
| 20260905034009 | 20 | 55 | 1.6 | 3.2 | 0.00 | 0.18 | 0.18 | 99 | 1014.5 |
| 20260905033503 | 20 | 126 | 4.8 | 4.8 | 0.00 | 0.18 | 0.18 | 99 | 1014.6 |
| 20260905032958 | 20 | 260 | 0.0 | 0.0 | 0.00 | 0.18 | 0.18 | 99 | 1014.4 |
| 20260905032454 | 20 | 78 | 0.0 | 1.6 | 0.00 | 0.18 | 0.18 | 99 | 1014.5 |
| 20260905031948 | 20 | 42 | 0.0 | 0.0 | 0.00 | 0.18 | 0.18 | 99 | 1014.6 |
| 20260905031445 | 20 | 101 | 0.0 | 1.6 | 0.00 | 0.18 | 0.18 | 99 | 1014.6 |
| 20260905030939 | 20 | 355 | 0.0 | 0.0 | 0.00 | 0.18 | 0.18 | 99 | 1014.6 |
| 20260905030435 | 20 | 56 | 0.0 | 1.6 | 0.00 | 0.18 | 0.18 | 99 | 1014.5 |
| 20260905025933 | 21 | 66 | 0.0 | 0.0 | 0.00 | 0.18 | 0.18 | 99 | 1014.7 |
| 20260905025429 | 21 | 76 | 0.0 | 1.6 | 0.00 | 0.18 | 0.18 | 99 | 1014.6 |
| 20260905024926 | 21 | 71 | 4.8 | 8.0 | 0.00 | 0.18 | 0.18 | 99 | 1015.0 |
| 20260905024426 | 21 | 51 | 0.0 | 0.0 | 0.00 | 0.18 | 0.18 | 99 | 1014.8 |
| 20260905023921 | 21 | 69 | 0.0 | 0.0 | 0.00 | 0.18 | 0.18 | 99 | 1014.8 |
| 20260905023416 | 21 | 72 | 0.0 | 0.0 | 0.00 | 0.18 | 0.18 | 99 | 1015.1 |
| 20260905022915 | 21 | 71 | 1.6 | 4.8 | 0.00 | 0.18 | 0.18 | 99 | 1014.9 |
| 20260905022411 | 21 | 77 | 0.0 | 0.0 | 0.00 | 0.18 | 0.18 | 99 | 1015.0 |
| 20260905021906 | 21 | 52 | 0.0 | 0.0 | 0.00 | 0.18 | 0.18 | 99 | 1014.9 |
| 20260905021400 | 21 | 57 | 0.0 | 0.0 | 0.00 | 0.18 | 0.18 | 99 | 1015.0 |
| 20260905020856 | 21 | 74 | 0.0 | 1.6 | 0.00 | 0.18 | 0.18 | 99 | 1015.2 |
| 20260905020349 | 21 | 127 | 1.6 | 3.2 | 0.00 | 0.18 | 0.18 | 99 | 1014.9 |
| 20260905015844 | 21 | 89 | 0.0 | 0.0 | 0.00 | 0.18 | 0.18 | 99 | 1014.9 |
| 20260905015343 | 21 | 77 | 0.0 | 0.0 | 0.00 | 0.18 | 0.18 | 99 | 1014.9 |
| 20260905014837 | 21 | 340 | 0.0 | 0.0 | 0.00 | 0.18 | 0.18 | 99 | 1014.8 |
| 20260905014332 | 21 | 72 | 0.0 | 0.0 | 0.00 | 0.18 | 0.18 | 99 | 1014.7 |
| 20260905013828 | 21 | 73 | 1.6 | 3.2 | 0.00 | 0.18 | 0.18 | 99 | 1014.7 |
| 20260905013324 | 21 | 71 | 0.0 | 0.0 | 0.00 | 0.18 | 0.18 | 99 | 1015.0 |
| 20260905012819 | 21 | 72 | 0.0 | 0.0 | 0.00 | 0.18 | 0.18 | 99 | 1015.0 |
| 20260905012315 | 21 | 328 | 0.0 | 0.0 | 0.00 | 0.18 | 0.18 | 99 | 1015.0 |
| 20260905011811 | 21 | 78 | 0.0 | 1.6 | 0.00 | 0.18 | 0.18 | 99 | 1014.8 |
| 20260905011307 | 21 | 68 | 0.0 | 1.6 | 0.00 | 0.18 | 0.18 | 99 | 1014.8 |
| 20260905010807 | 22 | 64 | 0.0 | 1.6 | 0.00 | 0.18 | 0.18 | 99 | 1014.6 |
| 20260905010302 | 22 | 54 | 0.0 | 0.0 | 0.00 | 0.18 | 0.18 | 99 | 1014.6 |
| 20260905005758 | 22 | 74 | 3.2 | 4.8 | 0.00 | 0.18 | 0.18 | 99 | 1014.3 |
| 20260905005253 | 22 | 68 | 3.2 | 4.8 | 0.00 | 0.18 | 0.18 | 99 | 1014.4 |
| 20260905004753 | 22 | 58 | 6.4 | 9.7 | 0.00 | 0.18 | 0.18 | 99 | 1014.4 |
| 20260905004247 | 22 | 75 | 1.6 | 1.6 | 0.00 | 0.18 | 0.18 | 99 | 1014.3 |